Hourly Weather Boltnevo

Today, 30 July, Friday

Time Temperature Precipitation Wind Pressure Humidity
00:00 +19°C° 0.4 mm 1 mps 733 mmHg 95%
01:00 +19°C° 0.4 mm 1 mps 733 mmHg 96%
02:00 +19°C° 0 mm 1 mps 733 mmHg 97%
03:00 +19°C° 0.2 mm 1 mps 733 mmHg 97%
04:00 +19°C° 0.2 mm 1 mps 732 mmHg 97%
05:00 +19°C° 0.2 mm 1 mps 732 mmHg 98%
06:00 +19°C° 0.7 mm 1 mps 732 mmHg 97%
07:00 +20°C° 0.7 mm 1 mps 732 mmHg 97%
08:00 +20°C° 0.7 mm 1 mps 732 mmHg 97%
09:00 +20°C° 0.2 mm 2 mps 732 mmHg 86%
10:00 +22°C° 0.2 mm 3 mps 733 mmHg 75%
11:00 +25°C° 0.2 mm 3 mps 733 mmHg 64%
12:00 +25°C° 0 mm 3 mps 733 mmHg 60%
13:00 +25°C° 0 mm 3 mps 732 mmHg 55%
14:00 +25°C° 0 mm 3 mps 732 mmHg 51%
15:00 +24°C° 0 mm 3 mps 732 mmHg 54%
16:00 +22°C° 0 mm 3 mps 732 mmHg 57%
17:00 +21°C° 0 mm 3 mps 732 mmHg 61%
18:00 +20°C° 0 mm 3 mps 732 mmHg 66%
19:00 +19°C° 0 mm 3 mps 732 mmHg 72%
20:00 +18°C° 0 mm 2 mps 732 mmHg 78%
21:00 +17°C° 0 mm 2 mps 732 mmHg 77%
22:00 +17°C° 0 mm 2 mps 732 mmHg 77%
23:00 +17°C° 0 mm 2 mps 732 mmHg 76%

Tomorrow, 31 July, Saturday

Time Temperature Precipitation Wind Pressure Humidity
00:00 +16°C° 0 mm 3 mps 732 mmHg 77%
01:00 +16°C° 0 mm 3 mps 732 mmHg 79%
02:00 +14°C° 0 mm 3 mps 732 mmHg 81%
03:00 +14°C° 0 mm 3 mps 732 mmHg 81%
04:00 +14°C° 0 mm 3 mps 732 mmHg 81%
05:00 +14°C° 0 mm 3 mps 732 mmHg 82%
06:00 +17°C° 0 mm 4 mps 732 mmHg 73%
07:00 +19°C° 0 mm 4 mps 732 mmHg 65%
08:00 +21°C° 0 mm 5 mps 733 mmHg 57%
09:00 +22°C° 0 mm 5 mps 733 mmHg 51%
10:00 +23°C° 0 mm 6 mps 733 mmHg 46%
11:00 +24°C° 0 mm 6 mps 733 mmHg 41%
12:00 +26°C° 0 mm 6 mps 733 mmHg 40%
13:00 +26°C° 0 mm 6 mps 733 mmHg 39%
14:00 +27°C° 0 mm 6 mps 733 mmHg 39%
15:00 +26°C° 0 mm 5 mps 734 mmHg 41%
16:00 +26°C° 0 mm 4 mps 734 mmHg 44%
17:00 +26°C° 0 mm 4 mps 734 mmHg 46%
18:00 +24°C° 0 mm 3 mps 734 mmHg 54%
19:00 +21°C° 0 mm 3 mps 734 mmHg 61%
20:00 +18°C° 0 mm 2 mps 734 mmHg 68%
21:00 +18°C° 0 mm 2 mps 734 mmHg 68%
22:00 +18°C° 0 mm 2 mps 734 mmHg 68%
23:00 +18°C° 0 mm 1 mps 735 mmHg 68%

Day after tomorrow, 1 August, Sunday

Time Temperature Precipitation Wind Pressure Humidity
00:00 +17°C° 0 mm 2 mps 734 mmHg 68%
01:00 +17°C° 0 mm 2 mps 734 mmHg 67%
02:00 +17°C° 0 mm 2 mps 734 mmHg 67%
03:00 +18°C° 0.5 mm 1 mps 734 mmHg 77%
04:00 +16°C° 0.5 mm 1 mps 734 mmHg 87%
05:00 +16°C° 0.5 mm 1 mps 734 mmHg 96%
06:00 +16°C° 0.9 mm 1 mps 734 mmHg 97%
07:00 +17°C° 0.9 mm 2 mps 734 mmHg 97%
08:00 +17°C° 0.9 mm 2 mps 734 mmHg 98%
09:00 +18°C° 0.2 mm 2 mps 734 mmHg 97%
10:00 +19°C° 0.2 mm 3 mps 734 mmHg 96%
11:00 +19°C° 0.2 mm 3 mps 734 mmHg 94%
12:00 +21°C° 0.1 mm 3 mps 734 mmHg 85%
13:00 +24°C° 0.1 mm 3 mps 734 mmHg 75%
14:00 +26°C° 0.1 mm 3 mps 734 mmHg 66%
15:00 +25°C° 0.1 mm 3 mps 734 mmHg 66%
16:00 +25°C° 0.1 mm 3 mps 734 mmHg 67%
17:00 +25°C° 0.1 mm 2 mps 734 mmHg 68%
18:00 +24°C° 0 mm 2 mps 734 mmHg 72%
19:00 +21°C° 0 mm 2 mps 734 mmHg 77%
20:00 +20°C° 0 mm 2 mps 734 mmHg 82%
21:00 +19°C° 0 mm 2 mps 734 mmHg 81%
22:00 +18°C° 0 mm 2 mps 734 mmHg 81%
23:00 +18°C° 0 mm 1 mps 734 mmHg 80%

2 August, Monday

Time Temperature Precipitation Wind Pressure Humidity
00:00 +18°C° 0 mm 1 mps 734 mmHg 79%
01:00 +18°C° 0 mm 1 mps 734 mmHg 79%
02:00 +18°C° 0 mm 1 mps 734 mmHg 78%
03:00 +18°C° 0 mm 1 mps 733 mmHg 80%
04:00 +17°C° 0 mm 2 mps 733 mmHg 82%
05:00 +16°C° 0 mm 2 mps 733 mmHg 83%
06:00 +18°C° 0.1 mm 2 mps 732 mmHg 81%
07:00 +19°C° 0.1 mm 2 mps 732 mmHg 79%
08:00 +21°C° 0.1 mm 2 mps 732 mmHg 78%
09:00 +20°C° 1.4 mm 2 mps 731 mmHg 83%
10:00 +20°C° 1.4 mm 3 mps 731 mmHg 89%
11:00 +19°C° 1.4 mm 3 mps 731 mmHg 95%
12:00 +20°C° 0.5 mm 3 mps 731 mmHg 94%
13:00 +20°C° 0.5 mm 3 mps 730 mmHg 94%
14:00 +20°C° 0.5 mm 3 mps 730 mmHg 93%
15:00 +20°C° 0.7 mm 4 mps 729 mmHg 91%
16:00 +21°C° 0.7 mm 4 mps 729 mmHg 89%
17:00 +21°C° 0.7 mm 5 mps 729 mmHg 87%
18:00 +19°C° 0 mm 5 mps 729 mmHg 89%
19:00 +18°C° 0 mm 4 mps 730 mmHg 92%
20:00 +17°C° 0 mm 4 mps 731 mmHg 94%
21:00 +15°C° 0 mm 4 mps 731 mmHg 94%
22:00 +14°C° 0 mm 3 mps 731 mmHg 95%
23:00 +14°C° 0 mm 3 mps 731 mmHg 96%

3 August, Tuesday

Time Temperature Precipitation Wind Pressure Humidity
00:00 +13°C° 0 mm 3 mps 732 mmHg 96%
01:00 +13°C° 0 mm 3 mps 732 mmHg 97%
02:00 +14°C° 0 mm 2 mps 733 mmHg 98%
03:00 +14°C° 0 mm 2 mps 733 mmHg 98%
04:00 +14°C° 0 mm 2 mps 733 mmHg 97%
05:00 +14°C° 0 mm 2 mps 734 mmHg 97%
06:00 +14°C° 0 mm 3 mps 734 mmHg 88%
07:00 +17°C° 0 mm 3 mps 734 mmHg 78%
08:00 +18°C° 0 mm 4 mps 735 mmHg 69%
09:00 +19°C° 0 mm 4 mps 735 mmHg 63%
10:00 +20°C° 0 mm 4 mps 735 mmHg 58%
11:00 +21°C° 0 mm 4 mps 735 mmHg 52%
12:00 +21°C° 0.1 mm 4 mps 736 mmHg 56%
13:00 +21°C° 0.1 mm 4 mps 736 mmHg 59%
14:00 +20°C° 0.1 mm 3 mps 736 mmHg 63%
15:00 +20°C° 0.1 mm 3 mps 736 mmHg 61%
16:00 +21°C° 0.1 mm 3 mps 736 mmHg 60%
17:00 +21°C° 0.1 mm 3 mps 736 mmHg 58%
18:00 +19°C° 0 mm 2 mps 737 mmHg 65%
19:00 +17°C° 0 mm 2 mps 737 mmHg 71%
20:00 +15°C° 0 mm 1 mps 737 mmHg 78%
21:00 +15°C° 0 mm 1 mps 738 mmHg 77%
22:00 +15°C° 0 mm 1 mps 738 mmHg 76%
23:00 +15°C° 0 mm 1 mps 738 mmHg 76%

4 August, Wednesday

Time Temperature Precipitation Wind Pressure Humidity
00:00 +15°C° 0 mm 1 mps 738 mmHg 76%
01:00 +15°C° 0 mm 1 mps 738 mmHg 77%
02:00 +15°C° 0 mm 1 mps 739 mmHg 78%
03:00 +15°C° 0 mm 1 mps 739 mmHg 79%
04:00 +14°C° 0 mm 1 mps 739 mmHg 81%
05:00 +14°C° 0 mm 1 mps 739 mmHg 83%
06:00 +15°C° 0 mm 1 mps 740 mmHg 79%
07:00 +16°C° 0 mm 1 mps 740 mmHg 75%
08:00 +18°C° 0 mm 1 mps 740 mmHg 72%
09:00 +19°C° 0 mm 1 mps 740 mmHg 70%
10:00 +19°C° 0 mm 1 mps 740 mmHg 69%
11:00 +20°C° 0 mm 1 mps 741 mmHg 67%
12:00 +21°C° 0.1 mm 1 mps 741 mmHg 62%
13:00 +22°C° 0.1 mm 1 mps 741 mmHg 57%
14:00 +23°C° 0.1 mm 1 mps 740 mmHg 51%
15:00 +23°C° 0 mm 1 mps 740 mmHg 55%
16:00 +22°C° 0 mm 1 mps 740 mmHg 58%
17:00 +21°C° 0 mm 1 mps 740 mmHg 62%
18:00 +20°C° 0 mm 1 mps 740 mmHg 66%
19:00 +19°C° 0 mm 1 mps 740 mmHg 70%
20:00 +16°C° 0 mm 1 mps 740 mmHg 74%
21:00 +16°C° 0 mm 1 mps 741 mmHg 74%
22:00 +16°C° 0 mm 1 mps 741 mmHg 74%
23:00 +15°C° 0 mm 1 mps 741 mmHg 74%
Show more

We Need Your Consent

Meteoprog and our Service Providers may store and access personal data such as cookies, device identifiers or other similar technologies on your device and process such data to personalise content and ads, as well as provide social media features and to analyse the traffic.

  • Store and/or access information on your device

    Cookies, device identifiers or other information can be stored or accessed on your device for the purposes indicated above.

  • Personalised ads and content, ad and content measurement, audience insights, and products development

    Ads and content can be personalised based on a profile. More data can be added to better personalise ads and content. Ad and content performance can be measured. Insights about the audience who saw the ads and content can be derived. Such data can be used to develop or improve user’s experience, systems and software.

By clicking ‘I Agree’ you will allow the use of indicated cookies, device identifiers, web beacons or other similar technologies. Your settings can be changed in the browser on your device.

For certain purposes, legitimate interests may be relied on, rather than consent. You can read more about this in our Privacy and Cookie Policy.